Weather History for KAOO - April, 2014

Change the Weather History Date:

Monday, April 14, 2014

  Actual Average Record
Temperature  
Mean Temperature 67 °F 49 °F  
Max Temperature 74 °F 59 °F 80 °F (1960)
Min Temperature 59 °F 38 °F 15 °F (1950)
Degree Days  
Heating Degree Days 0 17  
Month to date heating degree days 196 267  
Since 1 July heating degree days 5887 5681  
Cooling Degree Days 2 0  
Month to date cooling degree days 6 0  
Year to date cooling degree days 6 1  
Growing Degree Days 16 (Base 50)    
Moisture  
Dew Point 55 °F    
Average Humidity 68    
Maximum Humidity 90    
Minimum Humidity 46    
Precipitation  
Precipitation 0.18 in - 1.73 in (1970)
Month to date precipitation 1.75  
Year to date precipitation 7.16  
Sea Level Pressure  
Sea Level Pressure 29.80 in    
Wind  
Wind Speed 11 mph (South)    
Max Wind Speed 25 mph    
Max Gust Speed 34 mph    
Visibility 9 miles    
Events Rain    
T = Trace of Precipitation, MM = Missing Value Source: NWS Daily Summary

Daily Weather History Graph

Daily Weather History Graph

Search for Another Location

Airport or City:

Trip Planner

Search our weather history database for the weather conditions in past years. The results will help you decide how hot, cold, wet, or windy it might be!

Date:

Astronomy

Apr. 14, 2014 Rise Set
Actual Time 6:36 AM EDT 7:51 PM EDT
Civil Twilight 6:08 AM EDT 8:19 PM EDT
Nautical Twilight 5:34 AM EDT 8:53 PM EDT
Astronomical Twilight 4:59 AM EDT 9:28 PM EDT
Moon 7:28 PM EDT (4/14) 6:07 AM EDT (4/14)
Length of Visible Light 14h 10m
Length of Day
13h 14m
Full, 100% of the Moon is Illuminated
Apr 14
Full
Apr 15
Full
Apr 22
Last Quarter
Apr 29
New
May 6
First Quarter

Hourly Weather History & Observations

Time (EDT) Temp. Dew Point Humidity Pressure Visibility Wind Dir Wind Speed Gust Speed Precip Events Conditions
12:53 AM 70.0 °F 50.0 °F 49% 29.89 in 10.0 mi South 15.0 mph - N/A   Clear
1:53 AM 68.0 °F 51.1 °F 55% 29.87 in 10.0 mi South 11.5 mph - N/A   Clear
2:53 AM 66.9 °F 51.1 °F 57% 29.86 in 10.0 mi South 11.5 mph - N/A   Clear
3:53 AM 66.0 °F 51.1 °F 59% 29.85 in 10.0 mi South 11.5 mph - N/A   Clear
5:53 AM 64.9 °F 52.0 °F 63% 29.82 in 10.0 mi South 12.7 mph - N/A   Clear
6:53 AM 64.0 °F 52.0 °F 65% 29.83 in 10.0 mi South 8.1 mph - N/A   Clear
8:53 AM 64.9 °F 54.0 °F 68% 29.84 in 10.0 mi South 12.7 mph - N/A   Clear
9:53 AM 68.0 °F 54.0 °F 61% 29.84 in 10.0 mi SSW 18.4 mph 23.0 mph N/A   Clear
10:53 AM 70.0 °F 55.0 °F 59% 29.83 in 10.0 mi SSW 12.7 mph 20.7 mph N/A   Clear
11:53 AM 73.0 °F 53.1 °F 49% 29.81 in 10.0 mi South 18.4 mph 28.8 mph N/A   Clear
12:53 PM 72.0 °F 51.1 °F 48% 29.79 in 10.0 mi South 21.9 mph 33.4 mph N/A   Clear
2:53 PM 72.0 °F 53.1 °F 51% 29.78 in 10.0 mi South 20.7 mph 28.8 mph N/A   Clear
3:53 PM 73.9 °F 52.0 °F 46% 29.75 in 10.0 mi South 19.6 mph 27.6 mph N/A   Clear
5:40 PM 64.0 °F 55.9 °F 75% 29.78 in 2.5 mi Variable 4.6 mph 24.2 mph 0.04 in Rain Rain
5:49 PM 62.6 °F 57.2 °F 82% 29.78 in 6.0 mi South 5.8 mph - 0.04 in Rain Light Rain
5:53 PM 64.0 °F 57.0 °F 78% 29.77 in 10.0 mi South 8.1 mph - 0.04 in Rain Light Rain
6:53 PM 63.0 °F 57.9 °F 84% 29.77 in 10.0 mi Calm Calm - 0.00 in Rain Light Rain
7:38 PM 62.1 °F 57.9 °F 86% 29.80 in 2.5 mi WSW 4.6 mph - 0.05 in Rain Rain
7:46 PM 61.0 °F 57.9 °F 90% 29.79 in 5.0 mi Calm Calm - 0.07 in Rain Rain
7:53 PM 61.0 °F 57.9 °F 90% 29.77 in 6.0 mi Calm Calm - 0.07 in Rain Light Rain
8:53 PM 60.1 °F 57.9 °F 93% 29.78 in 9.0 mi Calm Calm - 0.00 in   Overcast
9:53 PM 62.1 °F 57.0 °F 84% 29.76 in 10.0 mi South 6.9 mph - 0.07 in   Overcast
10:53 PM 60.1 °F 57.9 °F 93% 29.75 in 10.0 mi SSW 4.6 mph - 0.00 in Rain Light Rain
11:53 PM 61.0 °F 57.0 °F 87% 29.72 in 10.0 mi South 4.6 mph - 0.00 in   Overcast